Other Public Products
Issued by NWS Grand Forks, ND

Home | Current Version | Previous Version | Text Only | Print | Product List | Glossary Off
Versions: 1 2 3 4 5 6 7 8 9 10 11 12 13 14 15 16 17 18 19 20 21 22 23 24 25 26 27 28 29 30 31 32 33 34 35 36 37 38 39 40 41 42 43 44 45 46 47 48 49 50

246
FPUS83 KFGF 290931
OPUFGF
PRAIRIE TO PINES WEATHER ROUNDUP
NATIONAL WEATHER SERVICE EASTERN NORTH DAKOTA/GRAND FORKS ND
400 AM CDT MON MAY 29 2017

 **SATELLITE DATA USED TO AUGMENT SKY COVER AT AUTOMATED STATIONS**
 *****  WEATHER ACROSS EASTERN NORTH DAKOTA  *****

CITY           SKY/WX    TMP DP  RH WIND       PRES   REMARKS
GRAND FORKS    RAIN      51  50  96 NW15      29.80S
GRAND FORKS AF LGT RAIN  50  50 100 N14       29.82R
GRAND CITY NWS NOT AVBL
BUXTON           N/A     50  50  99 NW17        N/A
DEVILS LAKE    CLOUDY    52  45  77 NW18      29.87S
FARGO          CLOUDY    52  49  89 NW13      29.81R
WAHPETON ARPT  CLOUDY    50  45  81 NW16      29.82S
$$

 *****  WEATHER ACROSS CENTRAL AND WESTERN NORTH DAKOTA  *****

CITY           SKY/WX    TMP DP  RH WIND       PRES   REMARKS
JAMESTOWN      CLOUDY    50  46  86 NW14      29.87S
BISMARCK       FAIR      50  42  74 NW13G23   29.99R
MINOT          MOCLDY    52  43  71 NW20G28   29.97S
MINOT AFB      CLOUDY    51  43  75 NW20G28   29.97R
GARRISON         N/A     47  42  83 NW16      29.99R
WILLISTON      FAIR      46  38  73 NW9       30.10R
DICKINSON      FAIR      38  34  85 NW7       30.06S
HETTINGER      FAIR      33  30  88 W6        30.09S
$$

 *****  OTHER OBSERVATIONS NORTHEAST NORTH DAKOTA  *****

CITY           SKY/WX    TMP DP  RH WIND       PRES   REMARKS
WALHALLA       NOT AVBL
LANGDON        PTSUNNY   48  48 100 NW16      29.85R
CAVALIER       CLOUDY    50  48  93 NW17      29.81S
GRAFTON        CLOUDY    50  50 100 NW14      29.83S
CANDO          NOT AVBL
FORT TOTTEN      N/A     52  46  81 NW9       29.95S
ROLLA          CLOUDY    48  46  93 NW21      29.90R
RUGBY          NOT AVBL
 ***** THE ABOVE OBSERVATIONS ARE NON NWS ARE NOT QUALITY
        CONTROLLED AND MAY MIS-REPORT RAIN FOR SNOW...
$$

 *****  OTHER OBSERVATIONS SOUTHEAST NORTH DAKOTA *****

CITY           SKY/WX    TMP DP  RH WIND       PRES   REMARKS
COOPERSTOWN    CLOUDY    52  46  82 NW15G22   29.86R
VALLEY CITY    CLOUDY    52  52 100 NW10      29.86S
OAKES          NOT AVBL
GWINNER        CLOUDY    52  48  87 MISG      29.85S
SHEYENNE NWR     N/A     53  48  82 NW6       29.95S
BUFFALO          N/A     52  46  78 CALM        N/A
WYNDMERE         N/A     54  46  76 W8          N/A
 ***** THE ABOVE OBSERVATIONS ARE NON NWS ARE NOT QUALITY
       CONTROLLED AND MAY MIS-REPORT RAIN FOR SNOW...
$$

  *****  WEATHER ACROSS NORTHERN MINNESOTA  *****

CITY           SKY/WX    TMP DP  RH WIND       PRES   REMARKS
FLAG ISLAND    CLOUDY    48  46  93 NW17      29.69S
WARROAD        CLOUDY    48  45  87 NW15G22   29.73R
ROSEAU         CLOUDY    48  43  81 NW10      29.74S
HALLOCK        CLOUDY    48  46  93 NW10G17   29.79S
THF RVR FALLS  LGT RAIN  48  47  96 NW10      29.77R FOG
HALSTAD          N/A     51  48  92 NW12        N/A
FOSSTON        DRIZZLE   46  46 100 NW8       29.76S
BAUDETTE       LGT RAIN  49  48  97 NW12      29.69S
WASKISH        CLOUDY    48  46  93 NW12      29.70S
CROOKSTON      CLOUDY    50  48  93 N15       29.79S
$$
  *****  WEATHER ACROSS CENTRAL AND WEST MINNESOTA  *****

CITY           SKY/WX    TMP DP  RH WIND       PRES   REMARKS
BEMIDJI        CLOUDY    47  46  93 NW15      29.72S
PARK RAPIDS    CLOUDY    50  45  83 W12       29.73S
WADENA         CLOUDY    48  45  87 NW9       29.75S
DETROIT LAKES  CLOUDY    48  46  93 NW17G23   29.78S FOG
MOORHEAD       CLOUDY    52  48  87 NW13      29.81F
FERGUS FALLS   LGT RAIN  48  48 100 NW22      29.79S
ELBOW LAKE     CLOUDY    50  49  94 W18       29.81S
MORRIS MN      MOCLDY    52  48  87 NW13      29.80R
STAPLES        CLOUDY    48  45  87 W14       29.74S
WHEATON        FAIR      54  46  76 W13       29.84S
$$
  *****  WEATHER ELSEWHERE ACROSS MINNESOTA  *****

CITY           SKY/WX    TMP DP  RH WIND       PRES   REMARKS
DULUTH         CLOUDY    52  49  89 NW12      29.62F
INTRNTL FALLS  LGT RAIN  51  48  89 NW8       29.64S
ELY            DRIZZLE   52  50  93 W5        29.59S
CLOQUET        CLOUDY    52  48  87 W10       29.65S
BRAINERD       CLOUDY    51  47  86 NW14      29.72S
HIBBING        CLOUDY    50  48  93 NW13G21   29.63S
ALEXANDRIA     CLOUDY    51  47  86 NW17      29.78F
SAINT CLOUD    CLOUDY    52  49  89 W9        29.74R
MINNEAPOLIS    FAIR      55  46  71 W14       29.73S
$$

  *****  WEATHER ACROSS SOUTH DAKOTA  *****

CITY           SKY/WX    TMP DP  RH WIND       PRES   REMARKS
SIOUX FALLS    FAIR      51  44  77 W5        29.89F
BROOKINGS      FAIR      50  44  80 NW13      29.88S
WATERTOWN      FAIR      48  44  86 NW9       29.87S
HURON          FAIR      49  43  80 NW14      29.93R
SISSETON         N/A     53  47  79 NW14      29.82F
ABERDEEN       FAIR      49  40  71 NW14      29.91R
MITCHELL       FAIR      51  45  79 NW8       29.95R
PIERRE         FAIR      50  39  66 NW12      30.00S
MOBRIDGE       FAIR      48  39  71 NW10      29.97S
RAPID CITY     FAIR      45  36  70 N12       30.12R
$$

  *****  SOME WEATHER IN NEARBY STATES *****

CITY           SKY/WX    TMP DP  RH WIND       PRES   REMARKS
GLASGOW MT     FAIR      44  32  62 N8        30.18S
GREAT FALLS MT FAIR      44  42  93 SW7       30.25S
CHEYENNE WY    FAIR      45  36  70 W8        30.28S
SCOTTSBLUFF NE MOCLDY    50  43  77 NW10      30.18S
OMAHA NE       FAIR      58  45  62 CALM      29.91R
DES MOINES IA  CLOUDY    58  48  69 W3        29.86R
DAVENPORT IA   FAIR      57  48  72 SW7       29.83R
CHICAGO IL     FAIR      61  50  67 SW7       29.76R
EAU CLAIRE WI  FAIR      49  48  97 SW3       29.68S
LA CROSSE WI   FAIR      56  49  77 S3        29.72S
$$

  *****  SOME NATIONAL WEATHER *****

CITY           SKY/WX    TMP DP  RH WIND       PRES   REMARKS
LA GUARDIA NY  LGT RAIN  58  53  84 E10       29.88R
RALEIGH NC     FAIR      66  62  87 CALM      29.86S
ATLANTA GA     CLOUDY    70  66  87 NW8       29.99S
NEW ORLEANS LA FAIR      75  63  66 NE8       29.97F
OKLAHOMA CITY  MOCLDY    57  48  72 CALM      30.05F
ALBUQUERQUE NM FAIR      64  35  34 E9        30.18F
SALT LAKE CITY FAIR      59  39  47 SW3       30.13F
LOS ANGELES CA MOCLDY    60  57  89 W6        29.95F
BOISE ID       FAIR      61  43  51 S3        30.08R
SEATTLE WA     FAIR      54  50  86 S12       30.07R
$$

*** WEATHER ACROSS MANITOBA...SASKATCHEWAN AND ONTARIO ***
                ***ONTARIO***

CITY           SKY/WX    TMP DP  RH WIND       PRES   REMARKS
GERALDTON      CLOUDY    52  50  93 CALM      29.52F
THUNDER BAY    CLOUDY    48  48 100 NE2       29.55S FOG
SIOUX LOOKOUT  MOCLDY    50  50 100 NW3       29.57S
TORONTO        CLOUDY    59  57  94 S7        29.67F
BIG TROUT LK   MOCLDY    54  50  87 N6        29.58S
PICKLE LAKE    NOT AVBL
DRYDEN         CLOUDY    52  50  93 NW6       29.60R
KENORA         LGT RAIN  46  46 100 NW13G20   29.67S FOG
$$
                *** MANITOBA***

CITY           SKY/WX    TMP DP  RH WIND       PRES   REMARKS
BRANDON        CLOUDY    50  43  76 N16G22    29.90
DAUPHIN        CLOUDY    50  46  87 NW14G20   29.90R
ISLAND LAKE    NOT AVBL
PILOT MOUND      N/A     48  45  87 NW14G21     N/A
THE PAS        CLOUDY    46  39  76 N20G25    29.94S
THOMPSON       LGT RAIN  37  36  93 N10G17    29.87R FOG
WINNIPEG       LGT RAIN  46  43  87 N17G24    29.81R
LYNN LAKE      LGT RAIN  37  37 100 N9        30.03R
CHURCHILL      MOCLDY    32  32 100 N12       29.89S WCI  23
GILLAM         FOG       34  34 100 N12       29.81S VSB 1/4
$$
                ***SASKATCHEWAN***

CITY           SKY/WX    TMP DP  RH WIND       PRES   REMARKS
ESTEVAN        PTCLDY    48  45  87 NW14      30.05R
KINDERSLEY     CLEAR     41  34  75 NE3       30.23R
LLOYDMINSTER   CLEAR     45  36  70 N2        30.23S
PRINCE ALBERT  PTCLDY    43  39  87 NW7       30.14S
REGINA         MOCLDY    48  41  76 NW9       30.11R
YORKTON          N/A     48  45  87 NW15      30.00S



USA.gov is the U.S. government's official web portal to all federal, state and local government web resources and services.